FFT4391 KDTW-KPHX

Flight info

Callsign FFT4391
Flight time 3h 48m
Altitude 34000
Route KAYLN3 SMUUV OBK STJ/N0465F360 J18 GCK CIM ZUN EAGUL6
Aircraft A320/M-SDE3FGHIRWY/LB1

Departure

Time 2026-05-07 17:57
Airport Detroit Metropolitan Wayne County Airport (KDTW)

Arrival

Time 2026-05-07 21:46
Airport Phoenix Sky Harbor International Airport (KPHX)
Time Latitude Longitude Altitude Speed Heading
2026-05-07 17:11 42.22374 -83.35053 646 ft 0 kts 119°
2026-05-07 17:40 42.22377 -83.35059 646 ft 4 kts 118°
2026-05-07 17:40 42.22389 -83.35091 648 ft 4 kts 117°
2026-05-07 17:40 42.22402 -83.35122 648 ft 4 kts 131°
2026-05-07 17:40 42.22422 -83.35141 647 ft 4 kts 186°
2026-05-07 17:41 42.22437 -83.35131 649 ft 1 kts 233°
2026-05-07 17:41 42.22439 -83.35127 649 ft 0 kts 233°
2026-05-07 17:45 42.22420 -83.35163 647 ft 9 kts 233°
2026-05-07 17:45 42.22382 -83.35232 648 ft 10 kts 233°
2026-05-07 17:45 42.22334 -83.35298 648 ft 10 kts 217°
2026-05-07 17:45 42.22275 -83.35361 647 ft 11 kts 218°
2026-05-07 17:46 42.22204 -83.35416 647 ft 12 kts 204°
2026-05-07 17:46 42.22123 -83.35469 646 ft 13 kts 207°
2026-05-07 17:46 42.22039 -83.35533 646 ft 14 kts 209°
2026-05-07 17:46 42.21958 -83.35588 645 ft 12 kts 194°
2026-05-07 17:47 42.21888 -83.35555 646 ft 10 kts 147°
2026-05-07 17:47 42.21838 -83.35508 645 ft 8 kts 135°
2026-05-07 17:47 42.21822 -83.35447 645 ft 7 kts 92°
2026-05-07 17:47 42.21823 -83.35360 645 ft 9 kts 88°
2026-05-07 17:48 42.21825 -83.35275 645 ft 10 kts 89°
2026-05-07 17:48 42.21826 -83.35193 646 ft 8 kts 88°
2026-05-07 17:48 42.21827 -83.35133 646 ft 5 kts 88°
2026-05-07 17:48 42.21828 -83.35094 646 ft 3 kts 88°
2026-05-07 17:49 42.21829 -83.35064 646 ft 4 kts 89°
2026-05-07 17:49 42.21830 -83.34947 646 ft 17 kts 89°
2026-05-07 17:49 42.21833 -83.34800 646 ft 15 kts 88°
2026-05-07 17:49 42.21834 -83.34670 646 ft 13 kts 89°
2026-05-07 17:50 42.21837 -83.34561 647 ft 10 kts 82°
2026-05-07 17:50 42.21873 -83.34489 648 ft 9 kts 34°
2026-05-07 17:50 42.21926 -83.34448 646 ft 10 kts 28°
2026-05-07 17:50 42.21983 -83.34407 646 ft 10 kts 28°
2026-05-07 17:51 42.22067 -83.34345 646 ft 14 kts 28°
2026-05-07 17:51 42.22148 -83.34285 647 ft 14 kts 28°
2026-05-07 17:51 42.22230 -83.34225 646 ft 13 kts 28°
2026-05-07 17:51 42.22327 -83.34153 646 ft 17 kts 28°
2026-05-07 17:52 42.22423 -83.34083 647 ft 15 kts 29°
2026-05-07 17:52 42.22507 -83.34021 646 ft 13 kts 28°
2026-05-07 17:52 42.22582 -83.33965 647 ft 11 kts 29°
2026-05-07 17:52 42.22652 -83.33914 646 ft 14 kts 28°
2026-05-07 17:53 42.22734 -83.33850 646 ft 12 kts 39°
2026-05-07 17:53 42.22753 -83.33794 646 ft 4 kts 85°
2026-05-07 17:53 42.22745 -83.33763 648 ft 3 kts 118°
2026-05-07 17:53 42.22732 -83.33738 647 ft 3 kts 129°
2026-05-07 17:54 42.22713 -83.33721 646 ft 3 kts 157°
2026-05-07 17:54 42.22696 -83.33719 647 ft 2 kts 179°
2026-05-07 17:54 42.22680 -83.33724 647 ft 2 kts 200°
2026-05-07 17:54 42.22660 -83.33739 647 ft 4 kts 209°
2026-05-07 17:55 42.22659 -83.33740 647 ft 0 kts 208°
2026-05-07 17:57 42.22563 -83.33813 648 ft 48 kts 210°
2026-05-07 17:57 42.22277 -83.34026 646 ft 92 kts 208°
2026-05-07 17:57 42.21251 -83.34781 669 ft 155 kts 212°
2026-05-07 17:57 42.20321 -83.35466 1296 ft 153 kts 212°
2026-05-07 17:58 42.19414 -83.36245 1899 ft 154 kts 230°
2026-05-07 17:58 42.18736 -83.37355 2518 ft 155 kts 238°
2026-05-07 17:58 42.18074 -83.38607 2790 ft 174 kts 239°
2026-05-07 17:58 42.17330 -83.40026 2989 ft 196 kts 238°
2026-05-07 17:59 42.16496 -83.41593 3270 ft 216 kts 238°
2026-05-07 17:59 42.15561 -83.43325 3584 ft 239 kts 236°
2026-05-07 17:59 42.14549 -83.45164 4280 ft 247 kts 236°
2026-05-07 17:59 42.13511 -83.47023 5104 ft 250 kts 236°
2026-05-07 18:00 42.12451 -83.48906 5914 ft 254 kts 236°
2026-05-07 18:00 42.11376 -83.50810 6685 ft 258 kts 236°
2026-05-07 18:00 42.10286 -83.52735 6936 ft 259 kts 236°
2026-05-07 18:00 42.09200 -83.54654 6997 ft 258 kts 236°
2026-05-07 18:01 42.08111 -83.56577 6998 ft 258 kts 236°
2026-05-07 18:01 42.07026 -83.58500 7010 ft 258 kts 238°
2026-05-07 18:01 42.06282 -83.60647 7007 ft 253 kts 259°
2026-05-07 18:01 42.06225 -83.62984 7037 ft 253 kts 281°
2026-05-07 18:02 42.07928 -83.67153 8565 ft 259 kts 304°
2026-05-07 18:02 42.08991 -83.69135 8923 ft 261 kts 304°
2026-05-07 18:02 42.10059 -83.71113 8991 ft 261 kts 304°
2026-05-07 18:03 42.11125 -83.73085 8999 ft 260 kts 304°
2026-05-07 18:03 42.12187 -83.75056 9001 ft 259 kts 304°
2026-05-07 18:03 42.13246 -83.77023 9004 ft 259 kts 304°
2026-05-07 18:03 42.14309 -83.78991 9295 ft 261 kts 304°
2026-05-07 18:04 42.15379 -83.80975 10126 ft 262 kts 304°
2026-05-07 18:04 42.16491 -83.83052 10383 ft 284 kts 304°
2026-05-07 18:04 42.17691 -83.85303 10530 ft 307 kts 304°
2026-05-07 18:04 42.18969 -83.87694 10910 ft 319 kts 304°
2026-05-07 18:05 42.20277 -83.90138 11550 ft 323 kts 303°
2026-05-07 18:05 42.21584 -83.92575 12190 ft 326 kts 303°
2026-05-07 18:05 42.22918 -83.95065 12856 ft 329 kts 303°
2026-05-07 18:05 42.24271 -83.97583 13530 ft 333 kts 302°
2026-05-07 18:06 42.25639 -84.00129 14112 ft 336 kts 302°
2026-05-07 18:06 42.27018 -84.02703 14675 ft 339 kts 302°
2026-05-07 18:06 42.28403 -84.05296 15262 ft 342 kts 301°
2026-05-07 18:06 42.29799 -84.07911 15831 ft 344 kts 301°
2026-05-07 18:07 42.31208 -84.10551 16403 ft 347 kts 301°
2026-05-07 18:07 42.32623 -84.13204 16952 ft 350 kts 301°
2026-05-07 18:07 42.34049 -84.15889 17496 ft 353 kts 301°
2026-05-07 18:07 42.35487 -84.18606 18029 ft 356 kts 300°
2026-05-07 18:08 42.36930 -84.21335 18521 ft 358 kts 300°
2026-05-07 18:08 42.38386 -84.24085 18984 ft 360 kts 300°
2026-05-07 18:08 42.39849 -84.26845 19465 ft 362 kts 300°
2026-05-07 18:08 42.41307 -84.29627 19922 ft 362 kts 297°
2026-05-07 18:09 42.42447 -84.32640 20379 ft 358 kts 287°
2026-05-07 18:09 42.43094 -84.35874 20829 ft 356 kts 276°
2026-05-07 18:09 42.43278 -84.39210 21271 ft 356 kts 270°
2026-05-07 18:09 42.43361 -84.42566 21715 ft 358 kts 270°
2026-05-07 18:10 42.43445 -84.45943 22152 ft 360 kts 270°
2026-05-07 18:10 42.43535 -84.49334 22595 ft 362 kts 270°
2026-05-07 18:10 42.43627 -84.52753 23013 ft 364 kts 270°
2026-05-07 18:10 42.43719 -84.56181 23431 ft 366 kts 270°
2026-05-07 18:11 42.43808 -84.59591 23780 ft 368 kts 270°
2026-05-07 18:11 42.43870 -84.61937 24008 ft 369 kts 270°
2026-05-07 18:11 42.43987 -84.66547 24466 ft 371 kts 270°
2026-05-07 18:11 42.44071 -84.70040 24803 ft 372 kts 270°
2026-05-07 18:12 42.44151 -84.73540 25136 ft 373 kts 270°
2026-05-07 18:12 42.44232 -84.77053 25470 ft 374 kts 270°
2026-05-07 18:12 42.44316 -84.80578 25804 ft 375 kts 270°
2026-05-07 18:12 42.44396 -84.84114 26135 ft 376 kts 270°
2026-05-07 18:13 42.44478 -84.87666 26463 ft 378 kts 270°
2026-05-07 18:13 42.44557 -84.91221 26783 ft 379 kts 270°
2026-05-07 18:13 42.44635 -84.94796 27092 ft 380 kts 270°
2026-05-07 18:13 42.44716 -84.98378 27384 ft 381 kts 270°
2026-05-07 18:14 42.44796 -85.01974 27674 ft 383 kts 270°
2026-05-07 18:14 42.44876 -85.05584 27967 ft 384 kts 270°
2026-05-07 18:14 42.44951 -85.09203 28250 ft 385 kts 270°
2026-05-07 18:14 42.45026 -85.12834 28524 ft 387 kts 270°
2026-05-07 18:15 42.45100 -85.16439 28786 ft 388 kts 270°
2026-05-07 18:15 42.45175 -85.20096 29050 ft 389 kts 270°
2026-05-07 18:15 42.45249 -85.23765 29313 ft 390 kts 270°
2026-05-07 18:15 42.45319 -85.27439 29684 ft 389 kts 270°
2026-05-07 18:16 42.45388 -85.31093 30075 ft 387 kts 270°
2026-05-07 18:16 42.45458 -85.34733 30389 ft 386 kts 270°
2026-05-07 18:16 42.45525 -85.38361 30662 ft 386 kts 270°
2026-05-07 18:16 42.45587 -85.41993 30908 ft 386 kts 270°
2026-05-07 18:17 42.45648 -85.45624 31158 ft 386 kts 270°
2026-05-07 18:17 42.45706 -85.49252 31408 ft 386 kts 270°
2026-05-07 18:17 42.45765 -85.52891 31659 ft 386 kts 270°
2026-05-07 18:17 42.45827 -85.56528 31913 ft 386 kts 270°
2026-05-07 18:18 42.45896 -85.60156 32170 ft 386 kts 271°
2026-05-07 18:18 42.45959 -85.63792 32421 ft 386 kts 270°
2026-05-07 18:18 42.46019 -85.67425 32671 ft 386 kts 270°
2026-05-07 18:18 42.46075 -85.71054 32919 ft 386 kts 270°
2026-05-07 18:19 42.46130 -85.74685 33161 ft 386 kts 270°
2026-05-07 18:19 42.46185 -85.78320 33402 ft 386 kts 270°
2026-05-07 18:19 42.46234 -85.81959 33645 ft 386 kts 270°
2026-05-07 18:19 42.46281 -85.85597 33883 ft 386 kts 270°
2026-05-07 18:20 42.46330 -85.89232 34096 ft 386 kts 270°
2026-05-07 18:20 42.46381 -85.92869 34302 ft 387 kts 270°
2026-05-07 18:20 42.46431 -85.96521 34494 ft 387 kts 270°
2026-05-07 18:20 42.46479 -86.00157 34686 ft 387 kts 270°
2026-05-07 18:21 42.46522 -86.03800 34865 ft 387 kts 270°
2026-05-07 18:21 42.46565 -86.07443 35045 ft 387 kts 270°
2026-05-07 18:21 42.46609 -86.11079 35221 ft 387 kts 270°
2026-05-07 18:21 42.46394 -86.14706 35381 ft 387 kts 262°
2026-05-07 18:22 42.45954 -86.18254 35536 ft 387 kts 262°
2026-05-07 18:22 42.45033 -86.25434 35857 ft 387 kts 261°
2026-05-07 18:22 42.44568 -86.29028 35993 ft 387 kts 262°
2026-05-07 18:23 42.44107 -86.32622 36023 ft 388 kts 262°
2026-05-07 18:23 42.43188 -86.39820 36024 ft 387 kts 262°
2026-05-07 18:24 42.42424 -86.45798 36027 ft 387 kts 262°
2026-05-07 18:24 42.41493 -86.52986 36034 ft 388 kts 262°
2026-05-07 18:25 42.40561 -86.60170 36035 ft 388 kts 262°
2026-05-07 18:25 42.39622 -86.67354 36032 ft 387 kts 262°
2026-05-07 18:26 42.38681 -86.74500 36028 ft 387 kts 262°
2026-05-07 18:26 42.37731 -86.81676 36021 ft 387 kts 262°
2026-05-07 18:27 42.36785 -86.88849 36019 ft 387 kts 262°
2026-05-07 18:27 42.35838 -86.96007 36015 ft 387 kts 262°
2026-05-07 18:28 42.34873 -87.03168 36008 ft 387 kts 262°
2026-05-07 18:28 42.33911 -87.10314 36009 ft 386 kts 262°
2026-05-07 18:29 42.32949 -87.17460 36006 ft 386 kts 262°
2026-05-07 18:29 42.31986 -87.24554 36006 ft 386 kts 262°
2026-05-07 18:30 42.31010 -87.31703 36004 ft 387 kts 262°
2026-05-07 18:30 42.30028 -87.38837 36005 ft 386 kts 262°
2026-05-07 18:31 42.29049 -87.45973 36004 ft 386 kts 262°
2026-05-07 18:31 42.28062 -87.53110 35997 ft 386 kts 262°
2026-05-07 18:32 42.27069 -87.60235 35994 ft 386 kts 262°
2026-05-07 18:32 42.26074 -87.67358 35991 ft 386 kts 262°
2026-05-07 18:33 42.25075 -87.74435 35991 ft 385 kts 262°
2026-05-07 18:33 42.24071 -87.81553 35990 ft 385 kts 262°
2026-05-07 18:34 42.23068 -87.88596 35989 ft 384 kts 262°
2026-05-07 18:34 42.21971 -87.95654 35988 ft 386 kts 256°
2026-05-07 18:35 42.20076 -88.02454 35987 ft 387 kts 253°
2026-05-07 18:35 42.18141 -88.09227 35986 ft 387 kts 253°
2026-05-07 18:36 42.16206 -88.15981 35987 ft 386 kts 253°
2026-05-07 18:36 42.14270 -88.22734 35977 ft 386 kts 253°
2026-05-07 18:37 42.12339 -88.29479 35978 ft 385 kts 253°
2026-05-07 18:37 42.10415 -88.36173 35975 ft 385 kts 253°
2026-05-07 18:38 42.08471 -88.42899 35975 ft 385 kts 253°
2026-05-07 18:38 42.06533 -88.49596 35985 ft 384 kts 253°
2026-05-07 18:39 42.04593 -88.56277 35980 ft 383 kts 253°
2026-05-07 18:39 42.02654 -88.62944 35979 ft 382 kts 253°
2026-05-07 18:40 42.00716 -88.69602 35978 ft 382 kts 253°
2026-05-07 18:40 41.98773 -88.76246 35980 ft 381 kts 253°
2026-05-07 18:41 41.96831 -88.82875 35979 ft 381 kts 253°
2026-05-07 18:41 41.94891 -88.89449 35979 ft 380 kts 253°
2026-05-07 18:42 41.92945 -88.96048 35970 ft 380 kts 253°
2026-05-07 18:42 41.90998 -89.02651 35968 ft 380 kts 253°
2026-05-07 18:43 41.89050 -89.09241 35965 ft 380 kts 253°
2026-05-07 18:43 41.87095 -89.15821 35970 ft 379 kts 253°
2026-05-07 18:44 41.85133 -89.22392 35971 ft 379 kts 253°
2026-05-07 18:44 41.83187 -89.28918 35962 ft 378 kts 253°
2026-05-07 18:45 41.81237 -89.35464 35965 ft 378 kts 254°
2026-05-07 18:45 41.79285 -89.41996 35975 ft 377 kts 253°
2026-05-07 18:46 41.77313 -89.48535 35979 ft 377 kts 253°
2026-05-07 18:46 41.75363 -89.55001 35979 ft 377 kts 253°
2026-05-07 18:47 41.73400 -89.61511 35977 ft 377 kts 253°
2026-05-07 18:47 41.71428 -89.68006 35977 ft 376 kts 253°
2026-05-07 18:48 41.69455 -89.74495 35978 ft 376 kts 253°
2026-05-07 18:48 41.67490 -89.80963 35980 ft 375 kts 253°
2026-05-07 18:49 41.65518 -89.87424 35981 ft 375 kts 253°
2026-05-07 18:49 41.63548 -89.93872 35976 ft 374 kts 253°
2026-05-07 18:50 41.61586 -90.00265 35977 ft 374 kts 253°
2026-05-07 18:50 41.59606 -90.06705 35981 ft 374 kts 253°
2026-05-07 18:51 41.57632 -90.13124 35980 ft 373 kts 253°
2026-05-07 18:51 41.55649 -90.19539 35987 ft 373 kts 253°
2026-05-07 18:52 41.53674 -90.25904 35987 ft 373 kts 253°
2026-05-07 18:52 41.51686 -90.32298 35991 ft 372 kts 253°
2026-05-07 18:53 41.49697 -90.38691 35989 ft 372 kts 253°
2026-05-07 18:53 41.47710 -90.45073 35989 ft 372 kts 253°
2026-05-07 18:54 41.45735 -90.51410 35986 ft 372 kts 253°
2026-05-07 18:54 41.43743 -90.57768 35987 ft 372 kts 253°
2026-05-07 18:55 41.41745 -90.64124 35986 ft 371 kts 253°
2026-05-07 18:55 41.39750 -90.70473 35989 ft 371 kts 253°
2026-05-07 18:56 41.37757 -90.76775 35990 ft 371 kts 253°
2026-05-07 18:56 41.35756 -90.83113 35993 ft 371 kts 253°
2026-05-07 18:57 41.33749 -90.89444 35991 ft 371 kts 253°
2026-05-07 18:57 41.31734 -90.95778 35990 ft 372 kts 253°
2026-05-07 18:58 41.29720 -91.02113 35990 ft 372 kts 253°
2026-05-07 18:58 41.27702 -91.08440 35986 ft 372 kts 252°
2026-05-07 18:59 41.25672 -91.14772 35989 ft 372 kts 252°
2026-05-07 18:59 41.23638 -91.21102 35986 ft 373 kts 252°
2026-05-07 19:00 41.21612 -91.27401 35990 ft 373 kts 252°
2026-05-07 19:00 41.19559 -91.33781 35990 ft 373 kts 252°
2026-05-07 19:01 41.17526 -91.40069 35983 ft 373 kts 252°
2026-05-07 19:01 41.15474 -91.46413 35976 ft 374 kts 252°
2026-05-07 19:02 41.13416 -91.52752 35981 ft 374 kts 252°
2026-05-07 19:02 41.11351 -91.59101 35982 ft 375 kts 252°
2026-05-07 19:03 41.09282 -91.65449 35976 ft 375 kts 252°
2026-05-07 19:03 41.07204 -91.71807 35990 ft 375 kts 252°
2026-05-07 19:04 41.05143 -91.78121 35986 ft 376 kts 252°
2026-05-07 19:04 41.03055 -91.84479 35987 ft 376 kts 252°
2026-05-07 19:05 41.00957 -91.90834 35987 ft 377 kts 252°
2026-05-07 19:05 40.98861 -91.97194 35988 ft 377 kts 252°
2026-05-07 19:06 40.96760 -92.03562 35983 ft 378 kts 252°
2026-05-07 19:06 40.93600 -92.13091 35976 ft 379 kts 252°
2026-05-07 19:07 40.91470 -92.19467 35974 ft 379 kts 251°
2026-05-07 19:07 40.89335 -92.25864 35970 ft 379 kts 251°
2026-05-07 19:08 40.87202 -92.32246 35967 ft 380 kts 251°
2026-05-07 19:08 40.85087 -92.38596 35971 ft 380 kts 251°
2026-05-07 19:09 40.82948 -92.44989 35973 ft 381 kts 251°
2026-05-07 19:09 40.80796 -92.51387 35982 ft 381 kts 251°
2026-05-07 19:10 40.78638 -92.57785 35982 ft 381 kts 251°
2026-05-07 19:10 40.76476 -92.64180 35979 ft 382 kts 251°
2026-05-07 19:11 40.74317 -92.70544 35974 ft 382 kts 251°
2026-05-07 19:11 40.72139 -92.76942 35970 ft 383 kts 251°
2026-05-07 19:12 40.69960 -92.83351 35968 ft 383 kts 251°
2026-05-07 19:12 40.67787 -92.89762 35969 ft 383 kts 251°
2026-05-07 19:13 40.65613 -92.96125 35968 ft 383 kts 251°
2026-05-07 19:13 40.63413 -93.02533 35971 ft 384 kts 251°
2026-05-07 19:14 40.61213 -93.08933 35971 ft 384 kts 251°
2026-05-07 19:14 40.59007 -93.15332 35974 ft 384 kts 251°
2026-05-07 19:15 40.56808 -93.21728 35976 ft 383 kts 251°
2026-05-07 19:15 40.54597 -93.28111 35982 ft 383 kts 251°
2026-05-07 19:16 40.52761 -93.33413 35982 ft 383 kts 251°
2026-05-07 19:16 40.50560 -93.39793 35983 ft 383 kts 251°
2026-05-07 19:17 40.48347 -93.46156 35985 ft 383 kts 250°
2026-05-07 19:17 40.46118 -93.52516 35980 ft 383 kts 250°
2026-05-07 19:18 40.43897 -93.58870 35978 ft 382 kts 250°
2026-05-07 19:18 40.41678 -93.65212 35974 ft 382 kts 250°
2026-05-07 19:19 40.39478 -93.71500 35969 ft 381 kts 250°
2026-05-07 19:19 40.37252 -93.77815 35973 ft 381 kts 250°
2026-05-07 19:20 40.35032 -93.84117 35977 ft 381 kts 250°
2026-05-07 19:20 40.32805 -93.90408 35981 ft 380 kts 250°
2026-05-07 19:21 40.30574 -93.96705 35977 ft 380 kts 250°
2026-05-07 19:21 40.28352 -94.02987 35979 ft 380 kts 250°
2026-05-07 19:22 40.26133 -94.09257 35979 ft 380 kts 250°
2026-05-07 19:22 40.23916 -94.15475 35979 ft 380 kts 250°
2026-05-07 19:23 40.21674 -94.21730 35979 ft 379 kts 250°
2026-05-07 19:23 40.19433 -94.27982 35975 ft 379 kts 250°
2026-05-07 19:24 40.17198 -94.34230 35976 ft 379 kts 250°
2026-05-07 19:24 40.14963 -94.40470 35975 ft 378 kts 250°
2026-05-07 19:25 40.12734 -94.46656 35975 ft 379 kts 250°
2026-05-07 19:25 40.10482 -94.52876 35975 ft 378 kts 250°
2026-05-07 19:26 40.08234 -94.59089 35975 ft 378 kts 250°
2026-05-07 19:26 40.05986 -94.65289 35974 ft 378 kts 250°
2026-05-07 19:27 40.03735 -94.71493 35975 ft 378 kts 250°
2026-05-07 19:27 40.01483 -94.77681 35973 ft 377 kts 250°
2026-05-07 19:28 39.99229 -94.83858 35975 ft 377 kts 249°
2026-05-07 19:28 39.96966 -94.90031 35974 ft 377 kts 249°
2026-05-07 19:29 39.94711 -94.96195 35976 ft 377 kts 249°
2026-05-07 19:29 39.92458 -95.02318 35974 ft 377 kts 249°
2026-05-07 19:30 39.90184 -95.08465 35975 ft 376 kts 249°
2026-05-07 19:30 39.87909 -95.14613 35969 ft 376 kts 249°
2026-05-07 19:31 39.85645 -95.20747 35976 ft 376 kts 249°
2026-05-07 19:31 39.83374 -95.26873 35964 ft 376 kts 249°
2026-05-07 19:32 39.83089 -95.27640 35975 ft 376 kts 249°
2026-05-07 19:32 39.82584 -95.28970 35687 ft 379 kts 246°
2026-05-07 19:32 39.81302 -95.31978 35519 ft 375 kts 248°
2026-05-07 19:33 39.80142 -95.35018 35682 ft 375 kts 250°
2026-05-07 19:33 39.79044 -95.38094 35852 ft 375 kts 250°
2026-05-07 19:33 39.77963 -95.41179 35958 ft 375 kts 250°
2026-05-07 19:33 39.76873 -95.44257 35960 ft 375 kts 250°
2026-05-07 19:34 39.74631 -95.50390 35968 ft 375 kts 249°
2026-05-07 19:34 39.72335 -95.56498 35963 ft 375 kts 249°
2026-05-07 19:35 39.70052 -95.62549 35965 ft 375 kts 249°
2026-05-07 19:35 39.67761 -95.68632 35967 ft 375 kts 249°
2026-05-07 19:36 39.65466 -95.74716 35964 ft 375 kts 249°
2026-05-07 19:36 39.63166 -95.80795 35962 ft 375 kts 249°
2026-05-07 19:37 39.60871 -95.86863 35968 ft 375 kts 249°
2026-05-07 19:37 39.58579 -95.92932 35964 ft 374 kts 249°
2026-05-07 19:38 39.56280 -95.98987 35964 ft 374 kts 249°
2026-05-07 19:38 39.53972 -96.05038 35964 ft 374 kts 248°
2026-05-07 19:39 39.51673 -96.11051 35965 ft 374 kts 248°
2026-05-07 19:39 39.49364 -96.17088 35969 ft 374 kts 248°
2026-05-07 19:40 39.47050 -96.23134 35966 ft 374 kts 248°
2026-05-07 19:40 39.44742 -96.29165 35967 ft 374 kts 248°
2026-05-07 19:41 39.42426 -96.35194 35967 ft 374 kts 248°
2026-05-07 19:41 39.40104 -96.41206 35966 ft 374 kts 248°
2026-05-07 19:42 39.37773 -96.47218 35972 ft 374 kts 248°
2026-05-07 19:42 39.35445 -96.53233 35973 ft 374 kts 248°
2026-05-07 19:43 39.33119 -96.59254 35974 ft 374 kts 248°
2026-05-07 19:43 39.30788 -96.65268 35975 ft 374 kts 248°
2026-05-07 19:44 39.28446 -96.71279 35977 ft 374 kts 248°
2026-05-07 19:44 39.26101 -96.77274 35977 ft 374 kts 248°
2026-05-07 19:45 39.23771 -96.83233 35974 ft 374 kts 248°
2026-05-07 19:45 39.21430 -96.89222 35968 ft 374 kts 248°
2026-05-07 19:46 39.19082 -96.95219 35964 ft 374 kts 248°
2026-05-07 19:46 39.16730 -97.01215 35962 ft 375 kts 248°
2026-05-07 19:47 39.14370 -97.07200 35960 ft 375 kts 248°
2026-05-07 19:47 39.12015 -97.13150 35957 ft 375 kts 248°
2026-05-07 19:48 39.09646 -97.19134 35955 ft 375 kts 248°
2026-05-07 19:48 39.07273 -97.25121 35953 ft 375 kts 248°
2026-05-07 19:49 39.04899 -97.31101 35955 ft 375 kts 247°
2026-05-07 19:49 39.02523 -97.37085 35957 ft 375 kts 247°
2026-05-07 19:50 39.00139 -97.43066 35962 ft 376 kts 247°
2026-05-07 19:50 38.97758 -97.49037 35969 ft 375 kts 247°
2026-05-07 19:51 38.95383 -97.54977 35975 ft 376 kts 247°
2026-05-07 19:51 38.92994 -97.60956 35976 ft 376 kts 247°
2026-05-07 19:52 38.90999 -97.67116 35981 ft 374 kts 252°
2026-05-07 19:52 38.89080 -97.73322 35974 ft 374 kts 251°
2026-05-07 19:53 38.87156 -97.79529 35975 ft 374 kts 252°
2026-05-07 19:53 38.85240 -97.85735 35976 ft 374 kts 252°
2026-05-07 19:54 38.83324 -97.91947 35961 ft 374 kts 251°
2026-05-07 19:54 38.81415 -97.98112 35972 ft 375 kts 251°
2026-05-07 19:55 38.79479 -98.04318 35966 ft 375 kts 251°
2026-05-07 19:55 38.77539 -98.10537 35965 ft 375 kts 251°
2026-05-07 19:56 38.75601 -98.16745 35955 ft 376 kts 251°
2026-05-07 19:56 38.73660 -98.22958 35943 ft 376 kts 251°
2026-05-07 19:57 38.71708 -98.29177 35954 ft 376 kts 251°
2026-05-07 19:57 38.69746 -98.35393 35950 ft 376 kts 251°
2026-05-07 19:58 38.67800 -98.41578 35948 ft 377 kts 251°
2026-05-07 19:58 38.65838 -98.47807 35953 ft 377 kts 251°
2026-05-07 19:59 38.63863 -98.54031 35951 ft 377 kts 251°
2026-05-07 19:59 38.61883 -98.60257 35945 ft 377 kts 251°
2026-05-07 20:00 38.60905 -98.63324 35521 ft 376 kts 251°
2026-05-07 20:00 38.59917 -98.66422 34801 ft 378 kts 251°
2026-05-07 20:00 38.58921 -98.69549 34203 ft 380 kts 251°
2026-05-07 20:00 38.57923 -98.72689 34010 ft 384 kts 251°
2026-05-07 20:01 38.55896 -98.79052 33963 ft 388 kts 251°
2026-05-07 20:01 38.53871 -98.85404 33967 ft 389 kts 250°
2026-05-07 20:02 38.51816 -98.91803 33969 ft 389 kts 250°
2026-05-07 20:02 38.49753 -98.98202 33968 ft 390 kts 250°
2026-05-07 20:03 38.47685 -99.04602 33967 ft 390 kts 250°
2026-05-07 20:03 38.45608 -99.11030 33963 ft 391 kts 250°
2026-05-07 20:04 38.43544 -99.17410 33966 ft 391 kts 250°
2026-05-07 20:04 38.41459 -99.23836 33965 ft 392 kts 250°
2026-05-07 20:05 38.39376 -99.30257 33965 ft 392 kts 250°
2026-05-07 20:05 38.37637 -99.35599 33971 ft 392 kts 250°
2026-05-07 20:06 38.35187 -99.43071 33964 ft 393 kts 250°
2026-05-07 20:06 38.33430 -99.48433 33963 ft 394 kts 250°
2026-05-07 20:07 38.31315 -99.54881 33961 ft 394 kts 250°
2026-05-07 20:07 38.29201 -99.61327 33962 ft 395 kts 250°
2026-05-07 20:08 38.27091 -99.67742 33962 ft 395 kts 250°
2026-05-07 20:08 38.24962 -99.74200 33963 ft 395 kts 250°
2026-05-07 20:09 38.22820 -99.80665 33964 ft 396 kts 250°
2026-05-07 20:10 38.19616 -99.90304 33963 ft 397 kts 250°
2026-05-07 20:10 38.17456 -99.96775 33966 ft 397 kts 250°
2026-05-07 20:11 38.15313 -100.03207 33960 ft 397 kts 250°
2026-05-07 20:11 38.13148 -100.09676 33971 ft 398 kts 250°
2026-05-07 20:12 38.10976 -100.16153 33976 ft 398 kts 250°
2026-05-07 20:12 38.08819 -100.22581 33970 ft 398 kts 250°
2026-05-07 20:13 38.06645 -100.29071 33971 ft 399 kts 250°
2026-05-07 20:13 38.04466 -100.35555 33977 ft 399 kts 250°
2026-05-07 20:14 38.02286 -100.42001 33986 ft 400 kts 249°
2026-05-07 20:14 38.00083 -100.48488 33994 ft 400 kts 249°
2026-05-07 20:15 37.97877 -100.54973 34000 ft 400 kts 249°
2026-05-07 20:15 37.95673 -100.61464 34008 ft 401 kts 250°
2026-05-07 20:16 37.93475 -100.67931 34009 ft 402 kts 249°
2026-05-07 20:16 37.91251 -100.74431 34004 ft 402 kts 250°
2026-05-07 20:17 37.89123 -100.80981 34010 ft 402 kts 251°
2026-05-07 20:17 37.87057 -100.87521 34000 ft 403 kts 251°
2026-05-07 20:18 37.84947 -100.94117 34001 ft 403 kts 251°
2026-05-07 20:18 37.82819 -101.00690 33992 ft 404 kts 250°
2026-05-07 20:19 37.80695 -101.07224 33986 ft 404 kts 250°
2026-05-07 20:19 37.78560 -101.13805 33995 ft 405 kts 250°
2026-05-07 20:20 37.76416 -101.20398 33999 ft 405 kts 250°
2026-05-07 20:20 37.74263 -101.26986 34003 ft 406 kts 250°
2026-05-07 20:21 37.72116 -101.33541 34007 ft 406 kts 250°
2026-05-07 20:21 37.69952 -101.40137 34006 ft 407 kts 250°
2026-05-07 20:22 37.67787 -101.46756 34012 ft 407 kts 250°
2026-05-07 20:22 37.65623 -101.53342 34010 ft 408 kts 250°
2026-05-07 20:23 37.63429 -101.59970 34029 ft 409 kts 250°
2026-05-07 20:23 37.61237 -101.66598 34035 ft 410 kts 250°
2026-05-07 20:24 37.59049 -101.73197 34034 ft 410 kts 250°
2026-05-07 20:24 37.56838 -101.79844 34033 ft 411 kts 250°
2026-05-07 20:25 37.54624 -101.86499 34021 ft 412 kts 250°
2026-05-07 20:25 37.52416 -101.93118 34012 ft 412 kts 250°
2026-05-07 20:26 37.50188 -101.99796 33999 ft 413 kts 250°
2026-05-07 20:26 37.47950 -102.06460 33988 ft 413 kts 250°
2026-05-07 20:27 37.45718 -102.13090 33981 ft 414 kts 250°
2026-05-07 20:27 37.43469 -102.19769 33978 ft 414 kts 250°
2026-05-07 20:28 37.41217 -102.26451 33975 ft 415 kts 250°
2026-05-07 20:28 37.38964 -102.33105 33979 ft 415 kts 250°
2026-05-07 20:29 37.36693 -102.39806 33973 ft 416 kts 250°
2026-05-07 20:29 37.34425 -102.46451 33975 ft 417 kts 250°
2026-05-07 20:30 37.32140 -102.53145 33976 ft 417 kts 250°
2026-05-07 20:30 37.29852 -102.59867 33973 ft 418 kts 250°
2026-05-07 20:31 37.27558 -102.66581 33977 ft 418 kts 250°
2026-05-07 20:31 37.25270 -102.73252 33981 ft 419 kts 249°
2026-05-07 20:32 37.22952 -102.79973 33988 ft 419 kts 249°
2026-05-07 20:32 37.20629 -102.86715 33987 ft 420 kts 249°
2026-05-07 20:33 37.18316 -102.93410 33994 ft 421 kts 249°
2026-05-07 20:33 37.15986 -103.00145 34002 ft 421 kts 249°
2026-05-07 20:34 37.13651 -103.06889 34004 ft 422 kts 249°
2026-05-07 20:34 37.11320 -103.13592 34007 ft 422 kts 249°
2026-05-07 20:35 37.08965 -103.20351 34012 ft 423 kts 249°
2026-05-07 20:35 37.06603 -103.27122 34013 ft 424 kts 249°
2026-05-07 20:36 37.04237 -103.33883 34018 ft 424 kts 249°
2026-05-07 20:36 37.01883 -103.40607 34022 ft 425 kts 249°
2026-05-07 20:37 36.99509 -103.47384 34022 ft 425 kts 249°
2026-05-07 20:37 36.97114 -103.54170 34026 ft 426 kts 249°
2026-05-07 20:38 36.94713 -103.60949 34026 ft 426 kts 249°
2026-05-07 20:38 36.92331 -103.67700 34027 ft 427 kts 249°
2026-05-07 20:39 36.89922 -103.74492 34030 ft 428 kts 249°
2026-05-07 20:39 36.87504 -103.81296 34034 ft 428 kts 249°
2026-05-07 20:40 36.85071 -103.88104 34040 ft 429 kts 248°
2026-05-07 20:40 36.82646 -103.94877 34039 ft 429 kts 248°
2026-05-07 20:41 36.80213 -104.01696 34043 ft 430 kts 248°
2026-05-07 20:41 36.77773 -104.08509 34053 ft 430 kts 248°
2026-05-07 20:42 36.75320 -104.15336 34072 ft 431 kts 248°
2026-05-07 20:42 36.72880 -104.22099 34089 ft 431 kts 248°
2026-05-07 20:43 36.70412 -104.28937 34113 ft 432 kts 248°
2026-05-07 20:43 36.67940 -104.35766 34110 ft 432 kts 248°
2026-05-07 20:44 36.65454 -104.42613 34122 ft 433 kts 248°
2026-05-07 20:44 36.62985 -104.49409 34131 ft 434 kts 248°
2026-05-07 20:45 36.60491 -104.56262 34108 ft 434 kts 248°
2026-05-07 20:45 36.58012 -104.63062 34100 ft 435 kts 248°
2026-05-07 20:46 36.55496 -104.69919 34079 ft 435 kts 248°
2026-05-07 20:46 36.52986 -104.76751 34062 ft 436 kts 248°
2026-05-07 20:47 36.50464 -104.83616 34050 ft 437 kts 248°
2026-05-07 20:47 36.47961 -104.90506 34082 ft 437 kts 249°
2026-05-07 20:48 36.45634 -104.97491 34124 ft 437 kts 250°
2026-05-07 20:48 36.43375 -105.04482 34165 ft 438 kts 250°
2026-05-07 20:49 36.41064 -105.11485 34199 ft 438 kts 249°
2026-05-07 20:49 36.38724 -105.18438 34235 ft 439 kts 249°
2026-05-07 20:50 36.36361 -105.25435 34231 ft 439 kts 249°
2026-05-07 20:50 36.34002 -105.32424 34230 ft 439 kts 249°
2026-05-07 20:51 36.31647 -105.39421 34202 ft 439 kts 249°
2026-05-07 20:51 36.29304 -105.46383 34174 ft 441 kts 249°
2026-05-07 20:52 36.26928 -105.53399 34139 ft 442 kts 249°
2026-05-07 20:52 36.24536 -105.60419 34098 ft 442 kts 249°
2026-05-07 20:53 36.22135 -105.67448 34061 ft 443 kts 249°
2026-05-07 20:53 36.19750 -105.74435 34049 ft 443 kts 249°
2026-05-07 20:54 36.17339 -105.81481 34042 ft 444 kts 249°
2026-05-07 20:54 36.14926 -105.88518 34034 ft 445 kts 249°
2026-05-07 20:55 36.12500 -105.95578 34029 ft 445 kts 249°
2026-05-07 20:55 36.10087 -106.02596 34055 ft 446 kts 249°
2026-05-07 20:56 36.07651 -106.09670 34085 ft 447 kts 249°
2026-05-07 20:56 36.05217 -106.16697 34112 ft 447 kts 249°
2026-05-07 20:57 36.02753 -106.23786 34136 ft 448 kts 249°
2026-05-07 20:57 36.00296 -106.30862 34150 ft 449 kts 249°
2026-05-07 20:58 35.97826 -106.37952 34147 ft 449 kts 249°
2026-05-07 20:58 35.95357 -106.45007 34129 ft 450 kts 248°
2026-05-07 20:59 35.92867 -106.52103 34105 ft 450 kts 249°
2026-05-07 20:59 35.90379 -106.59205 34081 ft 451 kts 249°
2026-05-07 21:00 35.87900 -106.66274 34052 ft 452 kts 249°
2026-05-07 21:00 35.85392 -106.73390 34032 ft 452 kts 248°
2026-05-07 21:01 35.82872 -106.80512 34038 ft 453 kts 248°
2026-05-07 21:01 35.80363 -106.87596 34041 ft 454 kts 248°
2026-05-07 21:02 35.77830 -106.94723 34045 ft 455 kts 248°
2026-05-07 21:02 35.75284 -107.01873 34049 ft 455 kts 248°
2026-05-07 21:03 35.72738 -107.09018 34051 ft 456 kts 248°
2026-05-07 21:03 35.70181 -107.16173 34057 ft 457 kts 248°
2026-05-07 21:04 35.67628 -107.23291 34051 ft 457 kts 248°
2026-05-07 21:04 35.65058 -107.30453 34055 ft 458 kts 248°
2026-05-07 21:05 35.62478 -107.37620 34055 ft 458 kts 248°
2026-05-07 21:05 35.59897 -107.44792 34053 ft 459 kts 248°
2026-05-07 21:06 35.57326 -107.51923 34053 ft 460 kts 248°
2026-05-07 21:06 35.54723 -107.59118 34050 ft 460 kts 248°
2026-05-07 21:07 35.52113 -107.66311 34046 ft 461 kts 248°
2026-05-07 21:07 35.49507 -107.73458 34042 ft 462 kts 248°
2026-05-07 21:08 35.46874 -107.80657 34069 ft 462 kts 247°
2026-05-07 21:08 35.44234 -107.87849 34082 ft 463 kts 248°
2026-05-07 21:09 35.41614 -107.95022 34097 ft 463 kts 248°
2026-05-07 21:09 35.38973 -108.02239 34099 ft 464 kts 248°
2026-05-07 21:10 35.36891 -108.07916 34247 ft 464 kts 246°
2026-05-07 21:10 35.35601 -108.11415 34048 ft 458 kts 245°
2026-05-07 21:10 35.34288 -108.14951 33860 ft 457 kts 247°
2026-05-07 21:10 35.32963 -108.18523 34056 ft 460 kts 247°
2026-05-07 21:11 35.31636 -108.22110 34056 ft 464 kts 247°
2026-05-07 21:11 35.27629 -108.32903 34005 ft 466 kts 247°
2026-05-07 21:12 35.24947 -108.40140 34000 ft 467 kts 247°
2026-05-07 21:12 35.22255 -108.47366 33999 ft 468 kts 247°
2026-05-07 21:13 35.19539 -108.54622 34002 ft 469 kts 247°
2026-05-07 21:13 35.16819 -108.61879 34053 ft 469 kts 247°
2026-05-07 21:14 35.14097 -108.69148 34095 ft 470 kts 247°
2026-05-07 21:14 35.11385 -108.76369 34139 ft 471 kts 247°
2026-05-07 21:15 35.08643 -108.83647 34181 ft 472 kts 247°
2026-05-07 21:15 35.05895 -108.90939 34182 ft 473 kts 247°
2026-05-07 21:16 35.03130 -108.98230 34183 ft 473 kts 246°
2026-05-07 21:16 35.00349 -109.05525 34167 ft 474 kts 246°
2026-05-07 21:17 34.97575 -109.12837 34127 ft 475 kts 246°
2026-05-07 21:17 34.94819 -109.20162 34082 ft 476 kts 247°
2026-05-07 21:18 34.92134 -109.27534 34038 ft 476 kts 248°
2026-05-07 21:18 34.89462 -109.34926 34008 ft 477 kts 248°
2026-05-07 21:19 34.86777 -109.42314 34014 ft 477 kts 248°
2026-05-07 21:19 34.84072 -109.49703 34017 ft 478 kts 247°
2026-05-07 21:20 34.81360 -109.57060 34017 ft 479 kts 247°
2026-05-07 21:20 34.78621 -109.64461 34016 ft 480 kts 247°
2026-05-07 21:21 34.75883 -109.71868 34012 ft 480 kts 247°
2026-05-07 21:21 34.73145 -109.79279 34015 ft 481 kts 247°
2026-05-07 21:22 34.70399 -109.86695 34033 ft 481 kts 247°
2026-05-07 21:22 34.69025 -109.90402 33750 ft 481 kts 247°
2026-05-07 21:22 34.67652 -109.94093 33491 ft 475 kts 247°
2026-05-07 21:23 34.66304 -109.97705 33249 ft 464 kts 247°
2026-05-07 21:23 34.64983 -110.01238 32998 ft 454 kts 247°
2026-05-07 21:23 34.63688 -110.04704 32740 ft 447 kts 247°
2026-05-07 21:23 34.62413 -110.08120 32504 ft 443 kts 247°
2026-05-07 21:24 34.61147 -110.11515 32267 ft 440 kts 247°
2026-05-07 21:24 34.59886 -110.14895 32015 ft 439 kts 247°
2026-05-07 21:24 34.58630 -110.18257 31767 ft 437 kts 247°
2026-05-07 21:24 34.57390 -110.21562 31522 ft 435 kts 247°
2026-05-07 21:25 34.56133 -110.24900 31271 ft 434 kts 247°
2026-05-07 21:25 34.54882 -110.28220 31022 ft 432 kts 247°
2026-05-07 21:25 34.53637 -110.31532 30768 ft 431 kts 247°
2026-05-07 21:25 34.52392 -110.34837 30520 ft 429 kts 247°
2026-05-07 21:26 34.51152 -110.38121 30265 ft 428 kts 247°
2026-05-07 21:26 34.49915 -110.41399 29993 ft 426 kts 247°
2026-05-07 21:26 34.48686 -110.44657 29703 ft 425 kts 247°
2026-05-07 21:26 34.47459 -110.47910 29415 ft 423 kts 247°
2026-05-07 21:27 34.46238 -110.51142 29122 ft 421 kts 247°
2026-05-07 21:27 34.45021 -110.54359 28834 ft 419 kts 247°
2026-05-07 21:27 34.43803 -110.57566 28561 ft 418 kts 247°
2026-05-07 21:27 34.42590 -110.60755 28296 ft 416 kts 246°
2026-05-07 21:28 34.41379 -110.63931 28029 ft 414 kts 246°
2026-05-07 21:28 34.40176 -110.67093 27771 ft 413 kts 246°
2026-05-07 21:28 34.38975 -110.70238 27513 ft 411 kts 246°
2026-05-07 21:28 34.37776 -110.73375 27249 ft 410 kts 246°
2026-05-07 21:29 34.36574 -110.76502 26998 ft 408 kts 244°
2026-05-07 21:29 34.35150 -110.79468 26745 ft 408 kts 236°
2026-05-07 21:29 34.33419 -110.82118 26496 ft 406 kts 227°
2026-05-07 21:29 34.31487 -110.84608 26240 ft 405 kts 226°
2026-05-07 21:30 34.29563 -110.87081 25997 ft 403 kts 226°
2026-05-07 21:30 34.27636 -110.89539 25750 ft 402 kts 226°
2026-05-07 21:30 34.25723 -110.91993 25511 ft 400 kts 226°
2026-05-07 21:30 34.23824 -110.94446 25276 ft 399 kts 226°
2026-05-07 21:31 34.21939 -110.96889 25051 ft 397 kts 226°
2026-05-07 21:31 34.20061 -110.99327 24822 ft 396 kts 226°
2026-05-07 21:31 34.18188 -111.01762 24585 ft 394 kts 226°
2026-05-07 21:31 34.16321 -111.04185 24362 ft 393 kts 226°
2026-05-07 21:32 34.14463 -111.06592 24134 ft 392 kts 226°
2026-05-07 21:32 34.12606 -111.08996 23911 ft 391 kts 226°
2026-05-07 21:32 34.10752 -111.11387 23688 ft 389 kts 226°
2026-05-07 21:32 34.08904 -111.13762 23435 ft 388 kts 226°
2026-05-07 21:33 34.07055 -111.16131 23159 ft 386 kts 226°
2026-05-07 21:33 34.05216 -111.18484 22889 ft 384 kts 226°
2026-05-07 21:33 34.03385 -111.20826 22453 ft 382 kts 226°
2026-05-07 21:33 34.01566 -111.23155 21606 ft 381 kts 226°
2026-05-07 21:34 33.99781 -111.25442 20866 ft 378 kts 226°
2026-05-07 21:34 33.97988 -111.27735 20160 ft 374 kts 226°
2026-05-07 21:34 33.96214 -111.30004 19449 ft 370 kts 226°
2026-05-07 21:34 33.94460 -111.32248 18769 ft 366 kts 226°
2026-05-07 21:35 33.92722 -111.34471 18096 ft 363 kts 226°
2026-05-07 21:35 33.90997 -111.36672 17383 ft 359 kts 226°
2026-05-07 21:35 33.89293 -111.38847 16725 ft 355 kts 226°
2026-05-07 21:35 33.87528 -111.40877 16115 ft 348 kts 216°
2026-05-07 21:36 33.85581 -111.42567 15485 ft 343 kts 215°
2026-05-07 21:36 33.83647 -111.44229 14884 ft 339 kts 215°
2026-05-07 21:36 33.81738 -111.45867 14303 ft 336 kts 215°
2026-05-07 21:36 33.79844 -111.47490 13713 ft 332 kts 216°
2026-05-07 21:37 33.77971 -111.49095 13068 ft 329 kts 216°
2026-05-07 21:37 33.76117 -111.50686 12447 ft 325 kts 216°
2026-05-07 21:37 33.74290 -111.52257 11853 ft 321 kts 216°
2026-05-07 21:37 33.72483 -111.53811 11265 ft 317 kts 216°
2026-05-07 21:38 33.70722 -111.55324 10707 ft 312 kts 216°
2026-05-07 21:38 33.68955 -111.56845 10067 ft 311 kts 216°
2026-05-07 21:38 33.67243 -111.58314 9848 ft 293 kts 216°
2026-05-07 21:38 33.65651 -111.59679 9712 ft 278 kts 216°
2026-05-07 21:39 33.64101 -111.61009 9578 ft 270 kts 216°
2026-05-07 21:39 33.62556 -111.62317 9179 ft 272 kts 216°
2026-05-07 21:39 33.60997 -111.63619 8803 ft 273 kts 215°
2026-05-07 21:39 33.59437 -111.64919 8443 ft 273 kts 215°
2026-05-07 21:40 33.57876 -111.66217 8084 ft 273 kts 215°
2026-05-07 21:40 33.56316 -111.67517 7717 ft 272 kts 215°
2026-05-07 21:40 33.54772 -111.68809 7352 ft 265 kts 216°
2026-05-07 21:40 33.53286 -111.70061 7006 ft 256 kts 216°
2026-05-07 21:41 33.51858 -111.71265 6673 ft 247 kts 216°
2026-05-07 21:41 33.50476 -111.72433 6351 ft 241 kts 216°
2026-05-07 21:41 33.49137 -111.73567 6024 ft 238 kts 216°
2026-05-07 21:41 33.47808 -111.74693 5707 ft 238 kts 216°
2026-05-07 21:42 33.46458 -111.75835 5388 ft 238 kts 216°
2026-05-07 21:42 33.45105 -111.76975 5091 ft 238 kts 216°
2026-05-07 21:42 33.43840 -111.78261 4622 ft 243 kts 232°
2026-05-07 21:42 33.43049 -111.80004 4293 ft 234 kts 254°
2026-05-07 21:43 33.42850 -111.81885 4016 ft 224 kts 270°
2026-05-07 21:43 33.42857 -111.83723 3737 ft 217 kts 270°
2026-05-07 21:43 33.42863 -111.85502 3464 ft 211 kts 270°
2026-05-07 21:43 33.42867 -111.87230 3184 ft 205 kts 270°
2026-05-07 21:44 33.42870 -111.88924 2928 ft 202 kts 270°
2026-05-07 21:44 33.42873 -111.90601 2676 ft 200 kts 270°
2026-05-07 21:44 33.42875 -111.92189 2439 ft 183 kts 270°
2026-05-07 21:44 33.42877 -111.93672 2208 ft 173 kts 270°
2026-05-07 21:45 33.42879 -111.95061 2010 ft 163 kts 270°
2026-05-07 21:45 33.42881 -111.96374 1823 ft 152 kts 270°
2026-05-07 21:45 33.42882 -111.97620 1623 ft 147 kts 270°
2026-05-07 21:45 33.42887 -111.98833 1414 ft 146 kts 270°
2026-05-07 21:46 33.42889 -112.00043 1224 ft 144 kts 269°
2026-05-07 21:46 33.42886 -112.01170 1154 ft 116 kts 270°
2026-05-07 21:46 33.42886 -112.01881 1151 ft 35 kts 270°
2026-05-07 21:46 33.42919 -112.02120 1138 ft 10 kts 300°
2026-05-07 21:47 33.42936 -112.02152 1147 ft 4 kts 303°
2026-05-07 21:47 33.42949 -112.02170 1143 ft 2 kts 316°
2026-05-07 21:47 33.42955 -112.02176 1145 ft 0 kts 322°
2026-05-07 21:47 33.42957 -112.02175 1140 ft 1 kts 346°
2026-05-07 21:48 33.42971 -112.02144 1149 ft 10 kts 55°
2026-05-07 21:48 33.42997 -112.02012 1150 ft 23 kts 91°
2026-05-07 21:48 33.42994 -112.01783 1151 ft 33 kts 91°
2026-05-07 21:48 33.43014 -112.01622 1145 ft 17 kts 62°
2026-05-07 21:49 33.43121 -112.01572 1149 ft 13 kts 359°
2026-05-07 21:49 33.43209 -112.01536 1140 ft 18 kts 64°
2026-05-07 21:49 33.43213 -112.01379 1150 ft 22 kts 91°
2026-05-07 21:49 33.43214 -112.01151 1149 ft 33 kts 87°
2026-05-07 21:50 33.43215 -112.00972 1152 ft 21 kts 91°
2026-05-07 21:50 33.43213 -112.00750 1148 ft 32 kts 92°
2026-05-07 21:50 33.43213 -112.00583 1147 ft 17 kts 90°
2026-05-07 21:50 33.43213 -112.00441 1148 ft 13 kts 87°
2026-05-07 21:51 33.43270 -112.00382 1149 ft 12 kts
2026-05-07 21:51 33.43350 -112.00383 1149 ft 11 kts 360°
2026-05-07 21:51 33.43422 -112.00383 1143 ft 10 kts
2026-05-07 21:51 33.43507 -112.00381 1160 ft 16 kts
2026-05-07 21:52 33.43622 -112.00379 1148 ft 18 kts 359°
2026-05-07 21:52 33.43764 -112.00379 1150 ft 21 kts 359°
2026-05-07 21:52 33.43906 -112.00378 1148 ft 19 kts 359°
2026-05-07 21:52 33.43973 -112.00435 1149 ft 11 kts 280°
2026-05-07 21:53 33.43975 -112.00526 1148 ft 11 kts 270°
2026-05-07 21:53 33.43976 -112.00608 1151 ft 9 kts 271°
2026-05-07 21:53 33.43976 -112.00676 1151 ft 7 kts 267°
2026-05-07 21:53 33.43953 -112.00727 1152 ft 8 kts 217°
2026-05-07 21:54 33.43909 -112.00762 1148 ft 7 kts 231°
2026-05-07 21:54 33.43888 -112.00799 1147 ft 4 kts 235°
2026-05-07 21:54 33.43870 -112.00825 1150 ft 3 kts 224°
2026-05-07 21:54 33.43853 -112.00839 1149 ft 3 kts 210°
2026-05-07 21:55 33.43840 -112.00847 1144 ft 2 kts 208°
2026-05-07 21:55 33.43830 -112.00853 1149 ft 1 kts 205°
2026-05-07 21:55 33.43829 -112.00853 1149 ft 0 kts 204°